Tracking 26006 objects as of 17-Aug-2022
HD Live streaming from Space Station
objects crossing your sky now

RESURS O1 DEB

Track RESURS O1 DEB now!
10-day predictions


NORAD ID: 46898
Int'l Code: 1994-074CE
Perigee: 581.8 km
Apogee: 589.6 km
Inclination: 97.9 °
Period: 96.2 minutes
Semi major axis: 6956 km
RCS: Unknown
Launch date: November 4, 1994
Source: Commonwealth of Independent States (former USSR) (CIS)
Launch site: TYURATAM MISSILE AND SPACE COMPLEX (TTMTR)

Note: This is SATELLITE DEBRIS
aabbcc
Your satellite tracking list
Your tracking list is empty




NASA's NSSDC Master Catalog

Two Line Element Set (TLE):
1 46898U 94074CE  22228.09943781  .00027073  00000-0  23965-2 0  9992
2 46898  97.8768 280.4262 0005584 101.0730 259.1119 14.96223934 96422
Source of the keplerian elements: AFSPC